San Diego, CA

9:35 AM PDT on August 20, 2017 (GMT -0700)
San Diego International-Lindbergh

Weather History for KSAN - December, 2013

Change the Weather History Date:

Thursday, December 5, 2013

  Actual Average Record
Temperature  
Mean Temperature 56 °F 57 °F  
Max Temperature 60 °F 65 °F 83 °F (1965)
Min Temperature 52 °F 49 °F 38 °F (1948)
Degree Days  
Heating Degree Days 9 8  
Month to date heating degree days 20 37  
Since 1 July heating degree days 90 182  
Cooling Degree Days 0 0  
Month to date cooling degree days 0 0  
Year to date cooling degree days 761 720  
Growing Degree Days 6 (Base 50)    
Moisture  
Dew Point 36 °F    
Average Humidity 51    
Maximum Humidity 66    
Minimum Humidity 36    
Precipitation  
Precipitation 0.01 in 0.05 in 1.34 in (1966)
Month to date precipitation 0.02 0.21  
Year to date precipitation 5.13 9.02  
Since 1 July precipitation 1.80  
Snow  
Snow 0.00 in - - ()
Month to date snowfall 0.0  
Year to date snowfall 0.0  
Snow Depth 0.00 in    
Sea Level Pressure  
Sea Level Pressure 30.05 in    
Wind  
Wind Speed 7 mph (SSE)    
Max Wind Speed 14 mph    
Max Gust Speed 21 mph    
Visibility 10 miles    
Events Rain    
T = Trace of Precipitation, MM = Missing Value Source: NWS Daily Summary

Daily Weather History Graph

Daily Weather History Graph

Search for Another Location

Airport or City:

Trip Planner

Search our weather history database for the weather conditions in past years. The results will help you decide how hot, cold, wet, or windy it might be!

Date:

Astronomy

Dec. 05, 2013 Rise Set
Actual Time 6:36 AM PST 4:42 PM PST
Civil Twilight 6:09 AM PST 5:09 PM PST
Nautical Twilight 5:39 AM PST 5:40 PM PST
Astronomical Twilight 5:09 AM PST 6:09 PM PST
Moon 9:04 AM PST (12/5) 8:03 PM PST (12/5)
Length of Visible Light 10h 59m
Length of Day
10h 05m
Waxing Crescent, 11% of the Moon is Illuminated
Dec 5
Waxing Crescent
Dec 9
First Quarter
Dec 17
Full
Dec 25
Last Quarter
Jan 1
New

Hourly Weather History & Observations

Time (PST) Temp. Dew Point Humidity Pressure Visibility Wind Dir Wind Speed Gust Speed Precip Events Conditions
12:51 AM 57.0 °F 32.0 °F 39% 29.99 in 10.0 mi West 6.9 mph - N/A   Mostly Cloudy
1:51 AM 57.0 °F 34.0 °F 42% 29.99 in 10.0 mi West 4.6 mph - N/A   Overcast
2:51 AM 57.0 °F 36.0 °F 45% 29.98 in 10.0 mi Calm Calm - N/A   Overcast
3:51 AM 57.0 °F 35.1 °F 44% 29.99 in 10.0 mi WSW 5.8 mph - 0.00 in   Overcast
4:51 AM 54.0 °F 39.0 °F 57% 29.99 in 10.0 mi Calm Calm - 0.01 in   Mostly Cloudy
5:51 AM 53.1 °F 42.1 °F 66% 29.99 in 10.0 mi ESE 8.1 mph - 0.00 in   Overcast
6:51 AM 53.1 °F 41.0 °F 64% 30.02 in 10.0 mi SE 10.4 mph - 0.00 in Rain Light Rain
7:51 AM 54.0 °F 42.1 °F 64% 30.03 in 10.0 mi East 5.8 mph - 0.00 in   Scattered Clouds
8:51 AM 55.9 °F 41.0 °F 57% 30.05 in 10.0 mi ESE 6.9 mph - N/A   Mostly Cloudy
9:51 AM 57.9 °F 39.0 °F 49% 30.06 in 10.0 mi SE 5.8 mph - N/A   Mostly Cloudy
10:51 AM 60.1 °F 33.1 °F 36% 30.06 in 10.0 mi SW 10.4 mph - N/A   Mostly Cloudy
11:51 AM 59.0 °F 33.1 °F 38% 30.05 in 10.0 mi WSW 13.8 mph 18.4 mph N/A   Scattered Clouds
12:51 PM 59.0 °F 34.0 °F 39% 30.04 in 10.0 mi SW 10.4 mph - N/A   Scattered Clouds
1:51 PM 59.0 °F 33.1 °F 38% 30.03 in 10.0 mi West 8.1 mph - N/A   Scattered Clouds
2:51 PM 57.9 °F 34.0 °F 41% 30.04 in 10.0 mi WSW 6.9 mph - N/A   Partly Cloudy
3:51 PM 57.9 °F 33.1 °F 39% 30.04 in 10.0 mi West 4.6 mph - N/A   Partly Cloudy
4:51 PM 57.0 °F 35.1 °F 44% 30.04 in 10.0 mi SSE 5.8 mph - N/A   Scattered Clouds
5:51 PM 57.0 °F 37.0 °F 47% 30.06 in 10.0 mi SSE 3.5 mph - N/A   Mostly Cloudy
6:51 PM 55.9 °F 35.1 °F 45% 30.08 in 10.0 mi ESE 4.6 mph - N/A   Partly Cloudy
7:51 PM 55.0 °F 35.1 °F 47% 30.09 in 10.0 mi East 4.6 mph - N/A   Partly Cloudy
8:51 PM 54.0 °F 35.1 °F 49% 30.10 in 10.0 mi East 4.6 mph - N/A   Partly Cloudy
9:51 PM 53.1 °F 35.1 °F 50% 30.12 in 10.0 mi East 3.5 mph - N/A   Partly Cloudy
10:51 PM 52.0 °F 35.1 °F 53% 30.13 in 10.0 mi Calm Calm - N/A   Partly Cloudy
11:51 PM 52.0 °F 35.1 °F 53% 30.13 in 10.0 mi East 5.8 mph - N/A   Partly Cloudy